P/2016 BA14 ( PanSTARRS ) 2021

Japanese version
Home page
Updated on February 21, 2021

---------------------------------------------------------------------

* Profile

* Orbital Elements

Epoch 2021 July 5.0 TT = JDT 2459400.5
T 2021 June 17.32229 TT                                 MPCW
q   1.0128244            (2000.0)            P               Q
n   0.18731202     Peri.  351.88801     -0.99117922     -0.13249492
a   3.0252338      Node   180.52654     +0.13231243     -0.98803376
e   0.6652079      Incl.   18.89377     +0.00756187     -0.07895818
P   5.26
From 1792 observations 2015 Dec. 1-2016 Oct. 9, mean residual 0".4.

* Magnitudes Graph

        H = 19.0  G = 0.15

---------------------------------------------------------------------

The orbital elements are published on M.P.E.C. 2016-U66.
The magnitudes graphs are made with Comet for Windows.

---------------------------------------------------------------------

Copyright(C) Seiichi Yoshida (comet@aerith.net). All rights reserved.